This demonstration page uses our WeatherBlox Daily Observations layout. Learn more.

Left ArrowRight Arrow

44.8408, -93.29828

Hourly Observations for August 8, 2021

Temp ( °F °C ) Dew Point ( °F °C ) Humidity (%) Winds ( mph kmh ) Pressure ( in mb ) Visibility ( mi km ) Precip ( " mm )
12:53 am 00:53 Cloudy 69 20.6 68 20 96 96 E 6 9 29.75 1007 7 11 0.00 0.00
1:18 am 01:18 Cloudy 69 20.6 68 20 96 96 E 7 11 29.74 1007 7 11 0.00 0.00
1:53 am 01:53 Cloudy 69 20.6 68 20 96 96 E 8 13 29.72 1006 7 11 0.00 0.00
2:53 am 02:53 Cloudy with Mist and Fog 69 20.6 68 20 96 96 ESE 7 11 29.70 1006 4 6 0.00 0.00
3:53 am 03:53 Cloudy with Mist and Fog 69 20.6 69 20.6 100 100 ESE 6 9 29.69 1006 1 2 0.00 0.00
4:20 am 04:20 Mostly Cloudy with Fog 69 20.6 69 20.6 100 100 E 5 7 29.68 1005 1 1 0.00 0.00
4:35 am 04:35 Mostly Cloudy with Fog 69 20.6 69 20.6 100 100 ESE 6 9 29.69 1005 0 0 0.00 0.00
4:53 am 04:53 Mostly Cloudy with Fog 69 20.6 69 20.6 100 100 ENE 5 7 29.69 1006 0 0 0.00 0.00
5:21 am 05:21 Mostly Cloudy with Mist and Fog 69 20.6 69 20.6 100 100 E 3 6 29.69 1005 1 1 0.00 0.00
5:32 am 05:32 Cloudy with Nearby Thunderstorms 69 20.6 69 20.6 100 100 SSE 3 6 29.69 1005 1 2 0.00 0.00
5:53 am 05:53 Cloudy with Strong Thunderstorms 70 21.1 67 19.4 90 90 SSW 12 19 29.69 1006 3 4 0.58 14.73
6:08 am 06:08 Cloudy with Strong Thunderstorms 70 21.1 70 21.1 100 100 SSW 8 13 29.68 1005 1 1 0.22 5.59
6:18 am 06:18 Cloudy with Thunderstorms 71 21.7 71 21.7 100 100 SSW 9 15 29.68 1005 3 5 0.55 13.97
6:43 am 06:43 Cloudy with Nearby Thunderstorms 71 21.7 70 21.1 96 96 S 8 13 29.69 1006 7 11 0.62 15.75
6:53 am 06:53 Cloudy 72 22.2 70 21.1 94 94 SSE 8 13 29.71 1006 7 11 0.62 15.75
7:09 am 07:09 Cloudy with Mist and Fog 72 22.2 70 21.1 94 94 S 9 15 29.69 1005 6 10 0.00 0.00
7:53 am 07:53 Partly Cloudy with Light Rain 72 22.2 68 20 87 87 W 5 7 29.69 1006 8 13 0.00 0.00
8:53 am 08:53 Cloudy 74 23.3 68 20 82 82 WSW 5 7 29.69 1006 10 16 0.00 0.00
9:53 am 09:53 Cloudy 74 23.3 70 21.1 88 88 SSE 8 13 29.73 1007 10 16 0.00 0.00
10:53 am 10:53 Cloudy 76 24.4 68 20 77 77 S 7 11 29.75 1007 10 16 0.00 0.00
11:53 am 11:53 Cloudy 77 25 68 20 74 74 SSE 10 17 29.72 1007 10 16 0.00 0.00
12:53 pm 12:53 Cloudy 78 25.6 68 20 71 71 SSW 6 9 29.72 1006 10 16 0.00 0.00
1:53 pm 13:53 Cloudy 77 25 67 19.4 71 71 SW 9 15 29.72 1006 10 16 0.00 0.00
2:06 pm 14:06 Cloudy 77 25 67 19.4 71 71 SSW 7 11 29.69 1006 10 16 0.00 0.00
2:13 pm 14:13 Cloudy 77 25 66 18.9 69 69 SSW 8 13 29.69 1006 10 16 0.00 0.00
2:53 pm 14:53 Cloudy 78 25.6 67 19.4 69 69 S 10 17 29.71 1006 10 16 0.00 0.00
3:53 pm 15:53 Cloudy 79 26.1 66 18.9 65 65 S 10 17 29.70 1006 10 16 0.00 0.00
4:53 pm 16:53 Cloudy 79 26.1 67 19.4 67 67 SSE 6 9 29.70 1006 10 16 0.00 0.00
5:53 pm 17:53 Cloudy 79 26.1 67 19.4 67 67 NNW 5 7 29.70 1006 10 16 0.00 0.00
6:24 pm 18:24 Cloudy 77 25 66 18.9 69 69 NNE 13 20 29.68 1005 10 16 0.00 0.00
6:46 pm 18:46 Cloudy 75 23.9 67 19.4 76 76 NE 8 13 29.70 1006 8 13 0.00 0.00
6:53 pm 18:53 Cloudy with Light Rain 75 23.9 67 19.4 76 76 NE 7 11 29.72 1006 6 10 0.00 0.00
7:41 pm 19:41 Cloudy 74 23.3 67 19.4 79 79 ENE 5 7 29.71 1006 10 16 0.00 0.00
7:53 pm 19:53 Cloudy 73 22.8 67 19.4 81 81 E 7 11 29.72 1007 10 16 0.00 0.00
8:53 pm 20:53 Cloudy 72 22.2 68 20 87 87 NE 6 9 29.74 1007 10 16 0.00 0.00
9:53 pm 21:53 Mostly Cloudy 71 21.7 67 19.4 87 87 NE 5 7 29.75 1007 10 16 0.00 0.00
10:53 pm 22:53 Mostly Cloudy with Light Rain 70 21.1 68 20 93 93 E 6 9 29.74 1007 6 10 0.01 0.25
11:53 pm 23:53 Mostly Cloudy with Light Rain 70 21.1 68 20 93 93 NE 5 7 29.74 1007 10 16 0.01 0.25

Powered by AerisWeather